Regional Weather Roundup
Issued by NWS

Home | Current Version | Previous Version | Graphics & Text | Print | Product List | Glossary On
Versions: 1 2 3 4 5 6 7 8 9 10 11 12 13 14 15 16 17 18 19 20 21 22 23 24 25 26 27 28 29 30 31 32 33 34 35 36 37 38 39 40 41 42 43 44 45 46 47 48 49 50
000
ASUS45 KCYS 031110
RWRWY

WYOMING REGIONAL WEATHER ROUNDUP
NATIONAL WEATHER SERVICE CHEYENNE WY
500 AM MDT SUN MAY 03 2015

NOTE:  "FAIR" INDICATES FEW OR NO CLOUDS BELOW 12,000 FEET
WITH NO SIGNIFICANT WEATHER AND/OR OBSTRUCTIONS TO VISIBILITY.

WYZ001-031200-
YELLOWSTONE NATIONAL PARK

CITY           SKY/WX    TMP DP  RH WIND       PRES   REMARKS
LK YELLOWSTONE   N/A     28  22  78 CALM      30.02S
W YELLOWSTONE  NOT AVBL

$$
WYZ002>013-054>058-071-098>099-031200-
NORTHERN WYOMING

CITY           SKY/WX    TMP DP  RH WIND       PRES   REMARKS
JACKSON        FAIR      41  32  70 CALM      29.96S
CODY           FAIR      45  36  70 N7        29.96R
GREYBULL       FAIR      52  35  52 NW20      29.86R
WORLAND        FAIR      46  32  58 SW5       29.89R
SHERIDAN       MOCLDY    48  37  65 NW12      29.96R
BUFFALO        CLOUDY    50  33  52 N14G28    29.97R
GILLETTE       FAIR      50  33  52 N9        29.92R
HULETT         FAIR      52  32  46 E9        29.94R
NEWCASTLE      FAIR      50  32  50 N6        29.84S

$$
WYZ014>020-022>026-101>103-031200-
CENTRAL WYOMING

CITY           SKY/WX    TMP DP  RH WIND       PRES   REMARKS
BIG PINEY      FAIR      36  29  75 NE12      30.02R WCI  28
PINEDALE       CLOUDY    32  32 100 W5        30.03S WCI  27
DUBOIS         FAIR      37  27  65 W5        29.97S WCI  34
LANDER         FAIR      58  33  39 SW9G20    29.90S
RIVERTON       FAIR      49  30  48 N9        29.92R
CASPER         FAIR      41  31  67 NW6       29.95R
DOUGLAS        FAIR      48  36  63 W8        29.89R

$$
WYZ021-027>030-104>119-031200-
SOUTHERN WYOMING

CITY           SKY/WX    TMP DP  RH WIND       PRES   REMARKS
EVANSTON       MOCLDY    47  29  49 SE8       30.02S
KEMMERER       FAIR      46  32  57 SW3       30.02S
FORT BRIDGER   CLOUDY    52  32  46 NW5       30.04S
ROCK SPRINGS   CLOUDY    46  37  71 S6        30.01S
DIXON          FAIR      42  35  74 E7        30.04F
RAWLINS        MOCLDY    51  31  46 W9        30.00R
SARATOGA       CLOUDY    45  34  65 SE3       30.03R
LARAMIE        FAIR      43  32  65 W14       29.99R
CHEYENNE       FAIR      53  33  46 NW10      29.93R
TORRINGTON     FAIR      51  40  65 NW7       29.82R
PINE BLUFFS    FAIR      43  39  87 SW6       29.90S

$$



USA.gov is the U.S. government's official web portal to all federal, state and local government web resources and services.